User: anonymous   Login
Location: Sungai Laei
(2.6000°N, 113.7167°E)
Time: 10:25:16
(UTC+00:00)
Language:

Cosmos 1763 Rocket - Orbit

View from above orbital plane
View from above orbital plane
View from above satellite
View from above satellite

Ground track
Ground track

The orbit data is extracted from the following two-line orbital elements,

1 16864U 86052B   22227.40529879  .00000096  00000-0  38105-4 0  9991
2 16864  74.0279 205.6302 0033491 202.5929 157.3754 14.40747292894130
Epoch (UTC): 15 August 2022 09:43:37
Eccentricity: 0.0033491
inclination: 74.0279°
perigee height: 732 km
apogee height: 780 km
right ascension of ascending node: 205.6302°
argument of perigee: 202.5929°
revolutions per day: 14.40747292
mean anomaly at epoch: 157.3754°
orbit number at epoch: 89413

The dashed part of the orbit path shows where the satellite is in the earth's shadow,  

DLR